Regional Weather Roundup
Issued by NWS

Home | Current Version | Previous Version | Text Only | Print | Product List | Glossary On
Versions: 1 2 3 4 5 6 7 8 9 10 11 12 13 14 15 16 17 18 19 20 21 22 23 24 25 26 27 28 29 30 31 32 33 34 35 36 37 38 39 40 41 42 43 44 45 46 47 48 49 50
000
ASUS44 KLUB 291601
RWRTX
WEST TEXAS WEATHER ROUNDUP
NATIONAL WEATHER SERVICE LUBBOCK TX
1100 AM CDT SUN MAR 29 2015

NOTE: "FAIR" INDICATES FEW OR NO CLOUDS BELOW 12,000 FEET WITH NO
SIGNIFICANT WEATHER AND/OR OBSTRUCTIONS TO VISIBILITY.

TXZ004-006>008-010-012-014-016-OKZ002-291700-
TEXAS PANHANDLE/OKLAHOMA PANHANDLE

CITY           SKY/WX    TMP DP  RH WIND       PRES   REMARKS
AMARILLO       SUNNY     67  33  28 N28G37    30.13R
BORGER         SUNNY     67  32  27 N28G37    30.15R
CANADIAN       SUNNY     69  38  31 N30G38    30.07R
DALHART        SUNNY     64  34  32 N28G35    30.22R
DUMAS          SUNNY     64  34  32 N28G35    30.18R
GUYMON         SUNNY     64  31  28 N32G43    30.17R
$$

TXZ026-029-035-045-048-291700-
SOUTHERN PANHANDLE/SOUTH PLAINS/ROLLING PLAINS

CITY           SKY/WX    TMP DP  RH WIND       PRES   REMARKS
CHILDRESS      SUNNY     73  39  29 NW18      29.97R
SEMINOLE       SUNNY     79  30  16 NW16      30.09R
LUBBOCK        SUNNY     75  30  19 N25G31    30.06R
PLAINVIEW      SUNNY     75  32  20 N28G38    30.05R
SNYDER         SUNNY     69  43  38 SW14      30.04R
$$

TXZ052-054-060>062-072-078-127-140-154-169-291700-
PERMIAN BASIN/CONCHO VALLEY/BIG COUNTRY/EDWARDS PLATEAU

CITY           SKY/WX    TMP DP  RH WIND       PRES   REMARKS
ABILENE        SUNNY     74  47  38 SW16      30.01R
BRADY          SUNNY     75  48  38 S16       30.06R
JUNCTION       SUNNY     74  51  44 S10       30.08R
MIDLAND        SUNNY     74  41  30 W5        30.06S
ODESSA         SUNNY     75  38  26 W6        30.08R
SAN ANGELO     SUNNY     74  50  42 SW17      30.04R
SONORA         SUNNY     70  50  49 S12       30.13S
WINK           SUNNY     73  36  25 NW8       30.08R
$$

TXZ055-058-074-075-080-082-291700-
FAR WEST/SOUTHWEST MOUNTAINS/TRANS PECOS

CITY           SKY/WX    TMP DP  RH WIND       PRES   REMARKS
ALPINE         SUNNY     81  15   8 W16G22    30.24S
DRYDEN           N/A     68  46  45 CALM      30.09R
EL PASO        SUNNY     68  14  12 S6        30.20R
FORT STOCKTON  SUNNY     76  25  15 W10       30.13R
GUADALUPE PASS SUNNY     66  16  14 SW8       30.27R
MARFA          SUNNY     75  19  12 W10       30.26R
PECOS          SUNNY     70  38  30 NW3       30.10S
$$

TXZ014-016-019-021>030-083-291700
TEXAS TECH WEST TEXAS MESONET/TEXAS PANHANDLE/NORTHERN SOUTH PLAINS

CITY           SKY/WX    TMP DP  RH WIND       PRES   REMARKS
ABERNATHY 5ENE   N/A     73  31  21 N23       30.07R
AMARILLO 9NNE    N/A     67  36  32 N25       30.13R
AMARILLO 7SSE    N/A     69  33  27 N28       30.14R
AMHERST 1NE      N/A     71  31  22 N28       30.10R
BOOTLEG 11WNW    N/A     68  27  21 N25       30.21R
CANADIAN 6E      N/A     67  36  31 N30       30.06R
CAPROCK CYN SP   N/A     75  31  20 N24       30.01R
CHILDRESS 2NNE   N/A     72  40  31 NW12      29.96R
CLARENDON 2WSW   N/A     74  32  21 N29       30.01R
CLAUDE 12SW      N/A     70  33  25 NW24      30.09R
DIMMITT 2NE      N/A     70  31  23 N31G40    30.12R
FLOYDADA 2NNE    N/A     73  28  18 NW21      30.04R
FRIONA 2NE       N/A     69  29  22 N26       30.16R
GOODLETT 3W      N/A     72  38  29 W8        29.94R
HART 3N          N/A     72  31  22 N31       30.10R
HEREFORD 2NW     N/A     69  28  22 N29       30.14R
MCLEAN 1E        N/A     72  33  23 N26       30.01R
MEMPHIS 1NE      N/A     77  33  19 N26       29.97R
MULESHOE 2SSW    N/A     73  29  20 N22       30.13R
OLTON 6S         N/A     73  31  21 N30       30.08R
PALO DURO SP     N/A     71  32  24 N22       30.11R
PAMPA 2E         N/A     67  35  31 N28       30.08R
PLAINVIEW 1S     N/A     74  32  21 N22G37    30.06R
SILVERTON 7ESE   N/A     75  32  20 N23G33    30.04R
TULIA 2ENE       N/A     72  33  23 N26       30.09R
TURKEY 2WSW      N/A     75  32  20 N26G36    29.98R
UMBARGER 3NNE    N/A     69  32  26 N25       30.15R
$$

TXZ033>036-039>041-045>048-291700
TEXAS TECH WEST TEXAS MESONET/SOUTH PLAINS

CITY           SKY/WX    TMP DP  RH WIND       PRES   REMARKS
AIKEN 3WSW       N/A     75  34  22 N28       30.07R
ANDREWS 2NE      N/A     76  29  17 NW14      30.08R
ANTON 6SSW       N/A     72  31  22 N22       30.09R
BROWNFIELD 2S    N/A     77  21  12 NW21      30.08R
DENVR CTY 7WNW   N/A     77  21  12 NW18      30.09R
GAIL 2ESE        N/A     71  43  36 W7        30.03R
LAMESA 2SE       N/A     74  35  24 NW10      30.06R
LEVELLAND 4S     N/A     73  23  15 NW22      30.10R
LUBBOCK 3WNW     N/A     74  26  16 NW14      30.07R
MORTON 1ENE      N/A     73  27  18 N26       30.12R
ODONNELL 1N      N/A     74  25  16 NW15      30.06R
PLAINS 3N        N/A     78  21  12 NW25      30.11R
REESE CENTER     N/A     73  25  16 N22       30.07R
SEAGRAVES 1SW    N/A     80  24  12 NW18      30.08R
SEMINOLE 2NNE    N/A     78  28  16 NW13      30.07R
SLATON 2NE       N/A     74  26  16 NW14      30.05R
SNYDER 3E        N/A     71  43  36 SW9       30.03R
SUNDOWN 8SW      N/A     75  22  14 NW24      30.11R
TAHOKA 3NNE      N/A     77  25  14 NW17      30.05R
WOLFFORTH 6SSW   N/A     75  28  17 NW23      30.08R
$$

TXZ031-032-036>038-042>044-291700-
TEXAS TECH WEST TEXAS MESONET/ROLLING PLAINS

CITY           SKY/WX    TMP DP  RH WIND       PRES   REMARKS
ASPERMONT 3NE    N/A     75  44  33 SW14      29.97S
FLUVANNA 3WNW    N/A     71  39  31 SW12      30.03R
GRAHAM 5SSW      N/A     77  29  17 W12       30.03S
GUTHRIE 10WSW    N/A     77  39  25 W14       29.97R
HASKELL 1NW      N/A     69  47  44 SW15      29.97R
JAYTON 1SSE      N/A     74  40  29 W14       29.98R
KNOX CITY 3NW    N/A     74  43  33 SW10      29.96S
LK A HENRY 1NW   N/A     74  41  30 W8        30.01R
NORTHFIELD 1S    N/A     74  36  25 NW15      29.98R
ODELL 4ENE       N/A     70  47  44 S5        29.95R
PADUCAH 10SW     N/A     79  31  17 W16       29.96R
POST 1NE         N/A     78  28  16 NW15      30.02R
RRING SPRGS 3N   N/A     76  32  20 NW20      30.00R
SEYMOUR 3NW      N/A     73  47  39 S12       29.96R
SPUR 1W          N/A     75  35  23 W10       29.99R
WEINERT 2NNE     N/A     73  47  39 SW15      29.97S
WHITE RVR 6NE    N/A     77  29  17 NW18      30.01S
$$

TXZ052-054-060>062-072-078-127-140-154-169-291700-
TEXAS TECH WEST TEXAS MESONET/PERMIAN BASIN/
CONCHO VALLEY/BIG COUNTRY/EDWARDS PLATEAU

CITY           SKY/WX    TMP DP  RH WIND       PRES   REMARKS
COYANOSA 2N      N/A     71  37  29 W8        30.10R
JUNCTION 1SSW    N/A     74  51  45 S9        30.09S
MERTZON 3NNE     N/A     69  49  47 S18       30.06R
SAN ANGELO 7NW   N/A     71  48  45 SW8       30.05R
STRLNG CT 4WSW   N/A     74  45  35 SW9       30.06R
ST LAWRNCE 5SW   N/A     71  41  33 SW12      30.07R
SWEETWATR 11SW   N/A     73  46  38 SW14      30.06R
WALL 1E          N/A     72  48  42 SW17      30.05R
$$

TXZ055-058-074-075-080-082-291700-
TEXAS TECH WEST TEXAS MESONET/FAR WEST/SOUTHWEST MOUNTAINS/TRANS PECOS

CITY           SKY/WX    TMP DP  RH WIND       PRES   REMARKS
PRSMN GAP BBNP   N/A     69  41  36 S6        30.15S
$$


USA.gov is the U.S. government's official web portal to all federal, state and local government web resources and services.